When you browse on this site, cookies collect data to enhance your experience and personalize the content and advertising you see.
Visit our Privacy Policy to learn more. By continuing to use the site, you agree to this use of cookies and data.

Hourly Weather Staryy Tukshum

Today, 11 July, Saturday

Time Temperature Precipitation Wind Pressure Humidity
00:00 +18°C° 0.2 mm 4 mps 753 mmHg 93%
01:00 +18°C° 0.2 mm 4 mps 754 mmHg 93%
02:00 +18°C° 0.2 mm 4 mps 754 mmHg 92%
03:00 +17°C° 0.2 mm 4 mps 754 mmHg 92%
04:00 +17°C° 0.1 mm 5 mps 754 mmHg 90%
05:00 +17°C° 0.1 mm 5 mps 754 mmHg 89%
06:00 +17°C° 0.1 mm 5 mps 754 mmHg 87%
07:00 +19°C° 0.1 mm 5 mps 755 mmHg 81%
08:00 +21°C° 0.1 mm 5 mps 755 mmHg 75%
09:00 +22°C° 0.1 mm 5 mps 755 mmHg 69%
10:00 +23°C° 0 mm 5 mps 755 mmHg 66%
11:00 +24°C° 0 mm 6 mps 755 mmHg 62%
12:00 +24°C° 0 mm 6 mps 755 mmHg 59%
13:00 +26°C° 0 mm 6 mps 755 mmHg 58%
14:00 +26°C° 0 mm 5 mps 755 mmHg 57%
15:00 +26°C° 0 mm 5 mps 755 mmHg 57%
16:00 +25°C° 0 mm 4 mps 755 mmHg 60%
17:00 +25°C° 0 mm 4 mps 755 mmHg 64%
18:00 +24°C° 0 mm 3 mps 755 mmHg 68%
19:00 +22°C° 0 mm 3 mps 755 mmHg 72%
20:00 +20°C° 0 mm 3 mps 755 mmHg 76%
21:00 +18°C° 0 mm 3 mps 755 mmHg 79%
22:00 +18°C° 0 mm 3 mps 755 mmHg 81%
23:00 +17°C° 0 mm 2 mps 755 mmHg 82%

Tomorrow, 12 July, Sunday

Time Temperature Precipitation Wind Pressure Humidity
00:00 +17°C° 0 mm 2 mps 755 mmHg 84%
01:00 +17°C° 0 mm 2 mps 755 mmHg 85%
02:00 +16°C° 0 mm 2 mps 755 mmHg 86%
03:00 +16°C° 0 mm 2 mps 755 mmHg 88%
04:00 +17°C° 0 mm 2 mps 755 mmHg 85%
05:00 +18°C° 0 mm 3 mps 755 mmHg 82%
06:00 +19°C° 0 mm 3 mps 754 mmHg 80%
07:00 +20°C° 0 mm 3 mps 754 mmHg 75%
08:00 +22°C° 0 mm 3 mps 754 mmHg 70%
09:00 +23°C° 0 mm 4 mps 755 mmHg 65%
10:00 +25°C° 0 mm 4 mps 754 mmHg 62%
11:00 +26°C° 0 mm 4 mps 754 mmHg 59%
12:00 +27°C° 0 mm 4 mps 754 mmHg 55%
13:00 +27°C° 0 mm 4 mps 753 mmHg 56%
14:00 +28°C° 0 mm 4 mps 753 mmHg 56%
15:00 +28°C° 0 mm 4 mps 753 mmHg 56%
16:00 +28°C° 0 mm 3 mps 752 mmHg 60%
17:00 +27°C° 0 mm 3 mps 752 mmHg 65%
18:00 +27°C° 0 mm 3 mps 751 mmHg 69%
19:00 +25°C° 0 mm 3 mps 751 mmHg 75%
20:00 +24°C° 0 mm 3 mps 752 mmHg 80%
21:00 +22°C° 0 mm 3 mps 752 mmHg 85%
22:00 +21°C° 0.1 mm 3 mps 751 mmHg 87%
23:00 +21°C° 0.1 mm 3 mps 751 mmHg 89%

Day after tomorrow, 13 July, Monday

Time Temperature Precipitation Wind Pressure Humidity
00:00 +20°C° 0.1 mm 3 mps 751 mmHg 91%
01:00 +20°C° 0 mm 3 mps 751 mmHg 92%
02:00 +20°C° 0 mm 3 mps 751 mmHg 93%
03:00 +19°C° 0 mm 3 mps 751 mmHg 93%
04:00 +20°C° 0.1 mm 3 mps 750 mmHg 92%
05:00 +21°C° 0.1 mm 3 mps 750 mmHg 91%
06:00 +21°C° 0.1 mm 3 mps 750 mmHg 90%
07:00 +23°C° 0.1 mm 4 mps 750 mmHg 86%
08:00 +25°C° 0.1 mm 4 mps 750 mmHg 82%
09:00 +27°C° 0.1 mm 4 mps 749 mmHg 79%
10:00 +28°C° 0.1 mm 5 mps 749 mmHg 72%
11:00 +29°C° 0.1 mm 5 mps 749 mmHg 65%
12:00 +30°C° 0.1 mm 5 mps 749 mmHg 58%
13:00 +32°C° 0 mm 5 mps 748 mmHg 58%
14:00 +33°C° 0 mm 4 mps 748 mmHg 57%
15:00 +34°C° 0 mm 4 mps 748 mmHg 57%
16:00 +34°C° 0 mm 3 mps 748 mmHg 60%
17:00 +33°C° 0 mm 3 mps 747 mmHg 63%
18:00 +32°C° 0 mm 2 mps 747 mmHg 66%
19:00 +30°C° 0 mm 3 mps 747 mmHg 68%
20:00 +29°C° 0 mm 3 mps 747 mmHg 70%
21:00 +27°C° 0 mm 3 mps 747 mmHg 73%
22:00 +26°C° 0.6 mm 2 mps 747 mmHg 78%
23:00 +25°C° 0.6 mm 2 mps 747 mmHg 82%

14 July, Tuesday

Time Temperature Precipitation Wind Pressure Humidity
00:00 +24°C° 0.6 mm 2 mps 747 mmHg 87%
01:00 +22°C° 0.1 mm 3 mps 747 mmHg 87%
02:00 +22°C° 0.1 mm 3 mps 747 mmHg 87%
03:00 +22°C° 0.1 mm 4 mps 747 mmHg 87%
04:00 +22°C° 0 mm 4 mps 747 mmHg 84%
05:00 +23°C° 0 mm 4 mps 746 mmHg 82%
06:00 +23°C° 0 mm 5 mps 746 mmHg 80%
07:00 +26°C° 0 mm 5 mps 746 mmHg 75%
08:00 +27°C° 0 mm 5 mps 746 mmHg 70%
09:00 +29°C° 0 mm 6 mps 746 mmHg 64%
10:00 +30°C° 0 mm 6 mps 746 mmHg 62%
11:00 +32°C° 0 mm 6 mps 746 mmHg 59%
12:00 +33°C° 0 mm 6 mps 746 mmHg 57%
13:00 +33°C° 0 mm 5 mps 746 mmHg 56%
14:00 +33°C° 0 mm 5 mps 746 mmHg 56%
15:00 +34°C° 0 mm 4 mps 746 mmHg 56%
16:00 +33°C° 0 mm 5 mps 745 mmHg 57%
17:00 +33°C° 0 mm 5 mps 745 mmHg 59%
18:00 +32°C° 0 mm 5 mps 745 mmHg 61%
19:00 +30°C° 0 mm 4 mps 744 mmHg 60%
20:00 +29°C° 0 mm 3 mps 744 mmHg 58%
21:00 +28°C° 0 mm 2 mps 744 mmHg 57%
22:00 +27°C° 0 mm 2 mps 744 mmHg 60%
23:00 +26°C° 0 mm 2 mps 744 mmHg 62%

15 July, Wednesday

Time Temperature Precipitation Wind Pressure Humidity
00:00 +25°C° 0 mm 2 mps 744 mmHg 65%
01:00 +25°C° 0 mm 2 mps 745 mmHg 65%
02:00 +25°C° 0 mm 2 mps 745 mmHg 64%
03:00 +25°C° 0 mm 2 mps 745 mmHg 63%
04:00 +25°C° 0 mm 2 mps 745 mmHg 66%
05:00 +24°C° 0 mm 2 mps 745 mmHg 69%
06:00 +24°C° 0 mm 2 mps 745 mmHg 71%
07:00 +26°C° 0 mm 2 mps 745 mmHg 67%
08:00 +27°C° 0 mm 2 mps 745 mmHg 63%
09:00 +29°C° 0 mm 2 mps 745 mmHg 59%
10:00 +29°C° 0 mm 3 mps 745 mmHg 58%
11:00 +29°C° 0 mm 4 mps 745 mmHg 58%
12:00 +30°C° 0 mm 4 mps 745 mmHg 57%
13:00 +29°C° 0 mm 5 mps 745 mmHg 60%
14:00 +29°C° 0 mm 6 mps 745 mmHg 62%
15:00 +28°C° 0 mm 6 mps 745 mmHg 65%
16:00 +28°C° 0 mm 6 mps 745 mmHg 65%
17:00 +27°C° 0 mm 5 mps 745 mmHg 64%
18:00 +26°C° 0 mm 4 mps 746 mmHg 64%
19:00 +25°C° 0 mm 4 mps 746 mmHg 68%
20:00 +22°C° 0 mm 4 mps 746 mmHg 72%
21:00 +21°C° 0 mm 3 mps 746 mmHg 76%
22:00 +20°C° 0 mm 3 mps 746 mmHg 80%
23:00 +19°C° 0 mm 3 mps 746 mmHg 83%

16 July, Thursday

Time Temperature Precipitation Wind Pressure Humidity
00:00 +17°C° 0 mm 3 mps 746 mmHg 87%
01:00 +17°C° 0 mm 3 mps 746 mmHg 88%
02:00 +16°C° 0 mm 3 mps 746 mmHg 89%
03:00 +14°C° 0 mm 3 mps 746 mmHg 90%
04:00 +14°C° 0 mm 4 mps 746 mmHg 88%
05:00 +15°C° 0 mm 4 mps 746 mmHg 86%
06:00 +15°C° 0 mm 5 mps 746 mmHg 83%
07:00 +16°C° 0 mm 5 mps 746 mmHg 81%
08:00 +17°C° 0 mm 5 mps 746 mmHg 78%
09:00 +19°C° 0 mm 6 mps 746 mmHg 75%
10:00 +19°C° 0 mm 6 mps 747 mmHg 73%
11:00 +19°C° 0 mm 6 mps 747 mmHg 71%
12:00 +20°C° 0 mm 6 mps 747 mmHg 69%
13:00 +20°C° 0 mm 6 mps 747 mmHg 67%
14:00 +20°C° 0 mm 5 mps 747 mmHg 66%
15:00 +21°C° 0 mm 5 mps 748 mmHg 65%
16:00 +20°C° 0 mm 5 mps 748 mmHg 68%
17:00 +20°C° 0 mm 4 mps 748 mmHg 70%
18:00 +19°C° 0 mm 4 mps 748 mmHg 72%
19:00 +18°C° 0 mm 4 mps 748 mmHg 77%
20:00 +17°C° 0 mm 3 mps 748 mmHg 81%
21:00 +14°C° 0 mm 3 mps 748 mmHg 86%
22:00 +14°C° 0 mm 3 mps 748 mmHg 88%
23:00 +13°C° 0 mm 3 mps 748 mmHg 89%
Show more